Temperature
20 19 20 19 19 20 19 19 19 19 19 19 19 19 19 19 19 19 19 19 19 18 18 18 18 18 18 18 18 18 18 18 18 18 18 18 17 17 17 17 17 16 17
21 19 20 19 19 20 20 19 19 19 19 19 19 19 19 19 19 19 19 19 18 18 18 18 18 18 18 18 18 18 18 18 18 18 18 17 17 17 17 17 17 17 17
20 19 20 19 20 20 20 19 19 19 19 19 19 19 19 19 19 19 19 18 18 18 18 18 18 18 18 18 18 18 18 18 18 17 17 17 17 17 17 17 17 17 17
20 19 19 20 20 20 20 20 19 19 19 19 19 19 19 19 19 18 18 18 18 18 18 18 18 18 18 18 18 18 18 18 18 17 17 17 16 17 17 17 17 17 17
20 19 19 20 20 20 20 20 19 19 19 19 19 19 19 19 18 18 18 18 18 18 18 18 18 18 18 18 18 18 18 18 17 17 17 17 17 17 17 17 17 17 17
19 19 19 20 20 20 20 20 20 19 19 19 19 19 19 18 18 18 18 18 18 18 18 18 18 18 18 18 18 18 18 18 17 17 17 17 17 17 17 17 17 17 17
20 19 19 20 20 20 20 20 19 19 19 19 19 19 18 18 18 18 18 18 18 18 18 18 18 18 18 18 18 18 18 17 17 17 17 17 17 17 17 17 17 17 17
20 19 19 20 19 19 19 19 19 19 19 19 19 18 18 18 18 18 18 18 18 18 18 18 18 18 17 17 17 18 18 17 17 17 17 17 17 17 17 17 17 17 17
20 20 18 19 19 19 19 19 19 19 19 19 19 18 18 18 18 18 18 18 18 17 17 17 17 17 17 17 17 18 18 17 18 17 17 17 17 17 17 17 17 16 16
20 20 19 18 18 18 19 19 19 19 19 19 19 19 18 18 18 18 18 18 18 17 17 17 17 17 17 17 17 18 18 18 18 18 17 17 17 17 17 17 17 16 16
20 19 19 19 18 18 18 18 19 19 19 19 19 19 18 17 17 17 17 18 18 17 17 17 17 17 17 18 18 18 18 18 18 18 17 17 17 17 17 17 17 17 16
19 19 19 19 18 18 18 18 18 18 18 18 18 18 18 17 17 17 17 18 17 18 18 18 17 17 17 17 18 18 18 18 18 17 17 17 17 17 17 17 17 17 16
19 19 19 18 18 18 18 18 18 18 18 18 17 17 17 17 17 17 17 17 17 17 17 17 17 17 17 17 18 18 18 18 18 18 17 17 17 17 17 17 17 17 16
19 18 18 18 18 18 18 18 18 18 18 18 18 18 18 18 17 17 17 17 17 17 17 17 17 17 17 17 17 17 17 18 18 17 17 17 17 17 17 17 16 16 16
19 18 18 18 18 18 18 18 18 18 18 18 18 18 18 18 17 17 17 17 17 17 17 17 17 17 17 17 17 17 17 17 17 17 17 17 17 17 17 17 16 16 16
19 18 18 18 18 18 18 18 18 18 18 18 18 18 18 18 17 17 17 17 17 17 17 17 17 17 17 17 17 17 17 17 17 17 17 17 17 17 17 16 16 16 16
18 18 18 18 18 18 18 18 18 18 18 18 18 18 18 17 17 17 17 17 17 17 17 17 17 17 17 17 17 17 17 17 17 16 17 17 17 17 17 17 16 16 16
18 18 18 18 18 18 18 18 17 18 18 18 17 18 18 17 17 17 17 17 17 17 17 17 17 17 17 17 17 17 17 16 16 16 16 16 16 17 16 16 16 16 16
18 18 18 18 18 18 18 18 17 17 18 18 17 17 18 17 17 17 17 17 17 17 17 17 17 17 17 17 17 17 17 17 16 17 16 16 16 16 16 16 16 16 16
17 18 18 18 18 18 17 17 17 17 17 17 17 17 17 17 17 17 17 17 17 17 16 16 16 16 16 16 17 17 17 17 17 17 17 17 17 16 16 16 16 16 16
17 18 17 17 17 17 17 17 17 17 17 17 17 17 17 17 17 17 17 17 17 17 16 16 16 16 16 16 17 17 17 17 17 16 17 17 17 16 16 16 16 16 16
18 17 17 17 17 17 17 17 17 17 17 17 17 17 17 17 17 17 17 17 17 16 16 16 16 16 16 16 17 17 18 17 16 17 16 16 17 16 16 16 16 16 16
17 17 17 17 17 17 17 17 17 17 17 17 17 17 17 17 17 17 17 17 16 16 16 16 16 16 16 16 16 17 18 19 18 17 16 16 16 16 17 16 16 16 16
17 17 17 17 17 17 17 17 17 17 17 17 17 17 17 17 17 17 16 16 16 16 16 16 16 16 16 16 16 16 17 17 18 18 17 16 16 16 16 16 16 16 15
17 17 17 17 17 17 17 17 17 17 17 17 17 17 17 17 17 16 16 16 16 16 16 15 15 16 16 16 17 16 16 16 17 18 18 17 17 16 16 16 16 16 15
17 17 16 16 17 17 17 17 17 17 17 17 17 17 17 17 16 16 16 16 16 16 15 15 15 15 15 15 16 16 17 17 17 18 18 17 17 17 16 16 16 16 16
Wind_Speed
15 18 19 16 16 17 17 17 18 18 17 16 16 15 14 14 13 12 12 12 12 12 12 13 13 14 14 14 15 15 15 16 16 16 16 17 16 16 16 15 15 17 17
18 20 20 18 17 17 17 17 18 18 17 16 16 15 14 13 13 12 12 11 12 12 12 13 14 14 14 14 14 15 15 15 15 16 16 16 15 14 13 11 13 16 16
20 21 21 18 18 18 18 17 17 17 17 16 15 15 14 13 13 12 12 12 12 12 12 13 13 14 14 14 14 14 14 14 14 13 12 14 15 13 13 15 17 16 15
21 22 21 20 18 18 18 17 17 17 16 16 15 15 14 13 12 12 12 12 12 12 12 12 13 13 13 13 13 13 13 13 11 9 9 12 14 14 13 14 15 14 14
20 20 21 21 19 18 18 17 17 16 16 15 15 14 13 13 12 12 12 12 12 12 12 12 12 12 12 12 12 12 12 11 7 5 10 11 13 13 13 13 13 13 13
19 20 22 21 20 19 18 17 17 16 15 15 14 14 13 13 12 12 12 12 12 12 12 11 11 11 11 11 11 11 11 9 8 9 9 10 12 12 12 12 12 12 12
20 19 22 20 20 19 18 17 17 16 15 15 14 13 13 13 12 12 12 12 12 12 11 11 10 10 10 9 9 10 8 5 4 8 8 9 12 12 11 11 11 11 11
19 19 22 20 19 18 18 17 16 16 15 14 13 13 13 12 12 12 12 12 11 11 11 10 10 9 8 8 8 9 7 6 6 7 7 10 12 11 10 10 10 10 10
18 18 19 20 19 18 17 16 16 15 15 14 13 13 12 12 11 11 11 11 11 10 10 10 9 8 8 7 8 8 5 4 3 6 7 9 11 10 9 9 9 9 10
17 17 17 19 18 18 17 16 16 15 15 14 13 12 12 12 11 11 11 11 10 9 9 9 8 7 7 7 7 7 6 6 4 7 6 10 11 9 8 8 8 8 8
16 15 16 17 17 17 16 17 16 15 14 14 13 13 12 11 11 11 10 11 9 8 8 8 7 7 6 8 7 7 7 4 4 4 6 13 10 8 8 8 8 8 7
18 17 15 15 15 15 14 15 14 14 14 12 12 13 10 7 7 8 12 9 9 8 8 7 6 7 7 7 9 9 4 3 4 5 8 11 8 8 7 7 7 7 7
17 16 15 14 14 14 11 12 11 10 11 11 11 11 8 8 8 8 9 9 8 9 7 8 8 6 4 2 3 4 2 2 2 4 9 10 7 7 8 7 7 7 7
16 16 15 14 13 12 11 10 10 9 9 9 10 11 9 6 6 6 6 7 7 6 5 5 4 3 3 3 2 1 3 2 2 2 8 10 8 7 7 8 8 8 8
16 16 14 13 13 11 9 8 9 9 9 9 9 10 8 7 6 6 5 5 6 5 6 4 4 4 3 3 3 3 3 2 2 2 6 9 8 8 7 8 8 8 8
16 15 14 14 13 11 10 8 8 9 9 9 9 10 9 7 6 5 5 5 4 5 4 4 4 4 3 3 3 3 3 3 3 3 3 8 10 9 8 8 9 9 9
15 15 14 14 13 12 11 10 9 9 10 8 8 9 9 8 6 5 5 5 5 5 5 4 4 4 4 4 3 3 3 2 2 3 3 4 7 11 10 9 9 9 9
14 14 14 13 13 13 11 9 7 8 9 8 8 8 9 7 7 6 5 5 5 5 5 4 4 4 3 3 3 2 2 3 3 4 4 5 4 5 10 11 9 9 10
13 13 14 13 13 13 12 9 8 7 7 7 8 8 8 8 8 7 5 4 6 5 4 4 3 3 3 2 3 3 3 3 4 5 4 4 4 4 5 10 10 9 9
13 13 13 13 12 12 10 9 7 7 7 7 7 8 9 8 8 7 6 6 6 5 4 3 3 2 2 3 3 2 3 3 4 3 4 4 4 5 5 5 7 9 10
13 12 13 13 12 11 10 10 9 8 8 7 7 9 10 9 9 8 6 6 6 5 5 5 4 4 4 3 4 4 4 4 3 3 3 3 3 3 3 4 5 4 8
13 12 13 14 14 13 11 9 8 8 7 8 7 8 10 10 10 9 7 7 6 5 5 5 4 4 3 3 4 4 4 5 5 4 4 4 3 4 4 5 4 4 4
13 13 12 13 13 13 12 9 8 7 7 7 8 8 9 11 10 8 8 7 6 7 6 6 6 6 4 4 4 4 3 3 4 5 4 4 4 4 4 4 5 4 5
12 12 12 13 13 13 14 13 13 11 10 10 9 9 9 10 10 9 9 8 7 6 5 7 6 5 5 5 4 3 4 4 3 4 6 5 4 4 3 4 4 4 5
11 11 11 12 13 13 14 14 13 11 9 8 9 9 9 9 10 10 9 8 7 6 6 5 5 5 5 5 4 4 4 4 6 5 3 5 5 5 5 4 3 3 3
10 10 11 12 12 13 13 14 14 13 12 11 11 11 10 9 9 10 10 8 8 6 7 6 6 6 5 4 4 4 5 4 5 5 4 5 5 4 4 3 4 4 4
Wind_Direction
158 149 146 150 147 144 141 139 137 135 135 135 134 132 129 126 122 118 113 111 108 106 105 103 104 104 103 103 104 106 108 110 109 108 107 105 105 107 110 117 119 107 110
151 147 147 151 148 145 142 140 138 137 136 136 135 134 132 128 125 121 118 114 111 108 106 105 104 104 103 104 105 106 109 110 112 113 115 110 105 105 104 95 90 106 112
149 147 152 152 149 146 143 142 140 139 139 138 136 135 133 130 128 125 121 118 114 110 109 107 106 106 105 105 105 106 109 111 115 126 138 119 111 107 103 98 100 110 111
150 151 156 151 151 148 145 144 142 141 141 140 139 136 134 132 130 127 123 119 116 113 111 109 108 107 107 108 108 108 111 112 121 160 133 113 114 111 111 109 111 113 112
151 151 149 153 153 150 148 146 144 143 143 142 140 138 136 133 129 126 123 119 116 115 114 113 112 110 111 111 110 111 114 117 144 162 102 107 109 115 116 115 115 115 115
152 154 150 157 155 153 151 148 147 146 145 143 142 140 137 133 129 126 121 118 116 116 115 114 113 112 111 113 115 115 119 141 183 110 111 115 115 121 121 120 118 118 118
157 155 153 160 157 156 154 152 150 148 147 145 142 139 137 133 129 125 120 118 118 117 115 114 114 113 113 115 119 123 130 187 133 109 116 107 111 124 125 123 122 121 120
160 157 152 160 159 158 156 155 153 151 148 145 143 138 134 132 129 124 123 121 120 118 117 116 115 112 110 114 122 129 147 221 129 116 111 106 114 127 127 126 126 127 127
163 159 157 163 162 161 159 158 156 154 151 149 145 141 137 131 128 126 124 123 122 121 120 118 116 110 108 112 123 130 141 258 146 122 121 114 125 131 131 131 131 131 130
167 165 163 166 165 166 164 163 161 158 154 151 149 145 140 136 134 134 139 126 126 126 125 122 120 113 111 114 123 134 157 223 148 132 123 121 134 140 138 138 139 138 136
172 170 170 168 168 170 167 161 166 162 159 158 157 152 161 161 150 156 128 130 133 130 127 126 126 125 136 137 137 155 191 194 131 119 110 117 143 150 150 149 148 146 147
176 177 174 174 169 172 168 163 172 172 166 175 162 165 172 152 150 138 123 136 139 138 138 137 141 168 203 162 155 186 193 165 141 134 116 130 154 159 159 160 159 159 159
180 181 177 175 171 174 169 169 173 172 166 174 166 168 161 160 158 153 150 152 157 166 167 157 184 193 186 152 178 184 164 181 158 138 127 145 165 172 171 171 174 175 174
184 185 180 175 174 177 175 174 174 172 171 174 169 176 166 170 166 162 164 162 169 171 167 183 185 179 182 181 210 207 189 208 166 130 129 156 176 184 185 187 190 191 188
186 185 181 176 176 176 175 185 180 175 175 174 171 176 175 175 176 166 164 171 177 168 173 186 188 177 186 185 203 194 213 191 181 186 137 159 181 190 196 199 200 199 198
187 182 178 179 178 177 178 186 182 179 176 176 178 176 183 181 175 173 171 176 174 177 171 181 174 182 196 180 194 188 214 200 164 195 169 165 181 191 200 206 206 203 203
183 180 178 179 180 183 185 187 185 182 180 181 177 177 183 186 175 180 173 179 175 168 166 178 178 187 192 191 198 195 197 211 180 189 194 191 179 186 195 206 209 207 207
182 180 180 183 183 186 186 186 188 188 181 181 181 181 186 187 184 190 182 181 170 180 181 175 198 195 197 208 195 212 195 194 203 205 204 202 205 192 186 193 203 207 209
184 183 184 187 186 185 181 180 188 186 184 183 184 186 184 186 186 192 191 167 183 186 188 201 174 212 201 212 207 199 217 213 209 210 210 210 201 215 193 177 193 205 211
186 186 187 190 187 180 176 176 181 186 189 186 185 185 182 183 185 189 185 179 191 185 186 187 165 205 233 231 243 205 224 211 217 197 211 199 201 209 208 192 193 197 201
184 186 187 191 185 178 176 178 179 186 190 188 188 184 183 187 184 190 187 179 198 189 190 187 192 184 212 218 229 217 200 203 199 194 215 214 186 195 198 196 214 205 186
187 190 190 191 185 182 181 180 181 179 188 190 189 182 188 189 187 189 191 191 190 182 187 193 209 228 213 213 246 234 214 191 201 191 197 208 205 195 196 194 195 209 231
193 192 191 188 183 184 177 173 173 172 183 185 186 185 189 189 188 189 188 194 186 198 188 198 204 219 222 210 240 259 249 222 173 179 195 199 204 213 212 190 199 194 212
195 192 191 189 186 184 179 181 183 187 190 192 187 181 182 186 185 184 189 193 200 206 186 203 203 214 228 219 199 244 287 331 256 187 189 187 194 211 213 220 193 188 203
191 191 190 190 188 186 185 185 187 193 195 190 185 176 182 182 185 186 189 192 198 207 200 208 189 223 222 237 225 213 221 233 254 263 211 190 196 198 197 211 215 208 198
187 189 189 190 189 184 185 188 192 194 194 190 187 181 187 183 187 188 189 193 199 201 195 202 203 210 232 241 252 240 231 231 232 242 239 222 215 199 200 213 224 220 222
Height
1521 1523 1523 1527 1529 1532 1534 1536 1538 1539 1541 1542 1543 1545 1546 1547 1548 1549 1550 1551 1552 1553 1554 1554 1555 1556 1556 1557 1558 1558 1559 1559 1560 1561 1561 1562 1563 1564 1564 1565 1567 1567 1567
1520 1522 1524 1527 1530 1533 1535 1537 1539 1541 1542 1544 1545 1546 1548 1549 1550 1551 1552 1553 1554 1555 1556 1556 1557 1558 1558 1559 1560 1560 1561 1562 1563 1563 1564 1565 1565 1566 1567 1568 1569 1569 1570
1520 1522 1525 1528 1531 1534 1537 1539 1541 1542 1544 1546 1547 1548 1549 1550 1551 1552 1553 1555 1556 1557 1557 1558 1559 1560 1560 1561 1562 1563 1563 1564 1565 1566 1567 1569 1568 1569 1570 1570 1571 1572 1572
1521 1524 1526 1529 1532 1535 1538 1540 1542 1544 1545 1547 1548 1550 1551 1552 1553 1554 1555 1556 1557 1558 1559 1560 1561 1562 1563 1563 1564 1565 1566 1567 1568 1569 1572 1572 1572 1571 1572 1573 1573 1574 1575
1522 1525 1527 1530 1533 1536 1539 1541 1543 1545 1547 1548 1550 1551 1552 1554 1555 1556 1557 1558 1559 1560 1561 1562 1563 1564 1565 1566 1566 1567 1568 1569 1570 1572 1574 1574 1574 1573 1574 1575 1576 1576 1577
1523 1527 1528 1531 1535 1537 1540 1542 1545 1546 1548 1550 1551 1553 1554 1555 1557 1558 1559 1560 1561 1562 1563 1564 1565 1566 1567 1568 1569 1570 1570 1571 1573 1576 1576 1576 1576 1575 1576 1577 1578 1579 1579
1524 1528 1529 1532 1536 1539 1541 1543 1546 1548 1549 1551 1553 1554 1556 1557 1558 1560 1561 1562 1563 1564 1565 1566 1567 1568 1569 1570 1571 1572 1572 1573 1577 1578 1577 1578 1577 1577 1578 1579 1580 1581 1581
1525 1529 1530 1533 1536 1539 1542 1545 1547 1549 1551 1552 1554 1555 1557 1558 1560 1561 1562 1563 1564 1566 1567 1568 1569 1570 1571 1572 1573 1574 1574 1575 1578 1579 1579 1579 1578 1579 1580 1581 1582 1582 1583
1526 1529 1531 1534 1536 1540 1542 1545 1547 1550 1551 1553 1555 1557 1558 1559 1561 1562 1564 1565 1566 1567 1568 1570 1571 1572 1573 1574 1575 1575 1576 1577 1581 1581 1581 1580 1580 1581 1582 1582 1583 1584 1585
1526 1529 1531 1535 1537 1540 1543 1545 1548 1550 1552 1554 1556 1557 1559 1560 1562 1563 1565 1566 1567 1569 1570 1571 1572 1574 1575 1576 1577 1577 1578 1579 1582 1582 1583 1581 1581 1582 1583 1584 1585 1586 1586
1525 1528 1532 1535 1537 1541 1544 1545 1548 1550 1552 1554 1556 1558 1560 1563 1564 1565 1566 1567 1568 1570 1571 1572 1574 1575 1576 1577 1578 1578 1579 1582 1583 1584 1583 1582 1582 1583 1584 1585 1586 1587 1587
1523 1527 1530 1534 1536 1540 1544 1545 1548 1551 1553 1556 1557 1559 1562 1563 1565 1567 1566 1568 1569 1570 1572 1573 1575 1576 1578 1579 1579 1580 1582 1583 1584 1584 1583 1583 1583 1584 1585 1586 1587 1587 1588
1521 1525 1528 1532 1534 1539 1542 1545 1548 1551 1553 1555 1557 1559 1561 1563 1565 1567 1568 1568 1569 1571 1573 1574 1576 1578 1579 1580 1581 1582 1583 1584 1584 1585 1584 1583 1584 1584 1585 1586 1587 1588 1589
1519 1522 1527 1530 1533 1536 1540 1544 1547 1550 1552 1555 1556 1558 1561 1563 1564 1566 1567 1569 1570 1572 1573 1575 1576 1577 1578 1579 1581 1582 1582 1583 1584 1585 1583 1583 1584 1585 1585 1586 1587 1588 1589
1516 1519 1523 1527 1530 1534 1538 1542 1546 1549 1552 1554 1555 1557 1560 1562 1564 1566 1567 1568 1570 1571 1573 1573 1575 1576 1577 1578 1580 1581 1582 1583 1583 1584 1584 1583 1584 1584 1585 1586 1587 1588 1588
1512 1516 1521 1524 1528 1532 1536 1540 1544 1547 1549 1553 1555 1557 1559 1561 1563 1565 1566 1567 1570 1571 1572 1573 1575 1576 1577 1578 1579 1580 1581 1582 1582 1582 1584 1583 1583 1584 1585 1585 1586 1587 1588
1509 1513 1517 1522 1526 1530 1534 1538 1542 1546 1548 1551 1553 1555 1557 1560 1562 1564 1566 1567 1569 1570 1571 1572 1573 1575 1576 1577 1578 1579 1580 1580 1581 1582 1583 1583 1583 1583 1584 1584 1585 1586 1586
1507 1510 1514 1519 1523 1527 1532 1536 1541 1544 1547 1549 1552 1554 1556 1559 1561 1563 1565 1567 1568 1570 1571 1572 1574 1575 1576 1577 1577 1578 1578 1579 1580 1580 1582 1582 1583 1584 1584 1584 1584 1585 1585
1505 1508 1511 1516 1520 1524 1529 1533 1538 1541 1545 1548 1551 1553 1555 1558 1560 1562 1564 1566 1567 1569 1571 1572 1573 1574 1575 1576 1576 1576 1577 1578 1579 1580 1581 1582 1582 1583 1583 1583 1583 1584 1584
1503 1506 1509 1513 1517 1521 1526 1530 1535 1539 1542 1546 1549 1552 1554 1556 1558 1561 1563 1564 1566 1568 1569 1571 1571 1572 1573 1574 1575 1576 1576 1577 1578 1579 1580 1580 1581 1582 1582 1583 1583 1583 1583
1501 1503 1506 1510 1514 1518 1522 1526 1531 1536 1540 1544 1547 1550 1553 1555 1557 1559 1562 1563 1565 1567 1568 1569 1571 1571 1573 1573 1574 1575 1575 1576 1576 1577 1578 1579 1580 1580 1581 1581 1582 1582 1582
1498 1501 1503 1507 1511 1515 1519 1524 1528 1533 1537 1541 1545 1548 1550 1553 1555 1558 1560 1562 1563 1565 1566 1567 1569 1571 1572 1572 1573 1574 1574 1576 1575 1576 1577 1578 1579 1579 1580 1580 1580 1580 1581
1495 1498 1501 1504 1507 1512 1516 1521 1526 1531 1535 1539 1542 1545 1548 1551 1553 1556 1558 1560 1562 1564 1565 1566 1567 1569 1570 1571 1572 1573 1573 1572 1574 1575 1575 1576 1577 1578 1579 1579 1579 1579 1579
1493 1496 1498 1501 1505 1509 1513 1518 1522 1527 1531 1535 1539 1543 1546 1549 1551 1554 1556 1558 1560 1563 1563 1565 1566 1567 1568 1570 1570 1570 1572 1571 1572 1573 1574 1575 1576 1576 1577 1578 1579 1578 1578
1491 1493 1495 1499 1502 1506 1510 1515 1519 1524 1529 1533 1537 1540 1543 1546 1549 1552 1554 1556 1558 1560 1561 1563 1563 1565 1567 1568 1569 1570 1570 1571 1572 1572 1572 1574 1575 1576 1576 1576 1577 1577 1577
1489 1491 1493 1496 1499 1503 1507 1512 1516 1521 1525 1530 1533 1537 1540 1544 1546 1549 1551 1553 1556 1558 1559 1560 1562 1563 1564 1566 1567 1568 1569 1570 1571 1571 1571 1572 1573 1574 1574 1575 1575 1575 1576